FW7008 Weather Reports


time (UTC)temp
C
wind
direction
speed
KPH
gust
KPH
rain 1hr
cm
rain 24hr
cm
rain mn
cm
humidity
%
barometer
mb
20260505094203 15 254 12.9 12.9 0.00 0.00 0.00 86 1014.6
20260505093659 15 250 0.0 0.0 0.00 0.00 0.00 88 1014.6
20260505093157 15 230 0.0 0.0 0.00 0.00 0.00 88 1014.6
20260505092653 15 243 0.0 0.0 0.00 0.00 0.00 89 1014.9
20260505092152 15 193 0.0 0.0 0.00 0.00 0.00 90 1014.9
20260505091649 15 170 0.0 0.0 0.00 0.00 0.00 91 1014.9
20260505091147 15 179 0.0 0.0 0.00 0.00 0.00 91 1014.9
20260505090644 15 184 0.0 0.0 0.00 0.00 0.00 91 1014.9
20260505090142 15 188 0.0 0.0 0.00 0.00 0.00 91 1014.9
20260505085639 15 202 0.0 0.0 0.00 0.00 0.00 91 1014.9
20260505085137 15 206 0.0 0.0 0.00 0.00 0.00 90 1014.9
20260505084635 15 212 0.0 0.0 0.00 0.00 0.00 90 1014.9
20260505084133 15 234 0.0 0.0 0.00 0.00 0.00 89 1014.9
20260505083630 15 204 0.0 0.0 0.00 0.00 0.00 89 1015.2
20260505083127 15 190 0.0 0.0 0.00 0.00 0.00 89 1014.9
20260505082623 15 228 0.0 0.0 0.00 0.00 0.00 89 1014.9
20260505082120 15 249 0.0 0.0 0.00 0.00 0.00 90 1014.9
20260505081616 15 238 0.0 0.0 0.00 0.00 0.00 90 1015.2
20260505081114 15 240 0.0 0.0 0.00 0.00 0.00 90 1015.2
20260505080609 15 224 0.0 0.0 0.00 0.00 0.00 90 1015.2
20260505080106 15 226 0.0 0.0 0.00 0.00 0.00 90 1015.2
20260505075602 15 205 0.0 0.0 0.00 0.00 0.00 91 1015.6
20260505075059 15 241 0.0 0.0 0.00 0.00 0.00 91 1015.2
20260505074556 15 239 0.0 0.0 0.00 0.00 0.00 91 1015.6
20260505074053 15 245 0.0 0.0 0.00 0.00 0.00 91 1015.6
20260505073550 15 243 0.0 0.0 0.00 0.00 0.00 91 1015.6
20260505073049 15 228 0.0 0.0 0.00 0.00 0.00 91 1015.6
20260505072544 15 250 0.0 0.0 0.00 0.00 0.00 91 1015.6
20260505072041 15 231 0.0 0.0 0.00 0.00 0.00 90 1015.6
20260505071536 15 205 0.0 0.0 0.00 0.00 0.00 90 1015.6
20260505071035 15 224 0.0 0.0 0.00 0.00 0.00 90 1015.6
20260505070531 15 215 0.0 0.0 0.00 0.00 0.00 89 1015.6
20260505070027 15 234 0.0 0.0 0.00 0.00 0.00 89 1015.6
20260505065523 15 236 0.0 0.0 0.00 0.00 0.00 89 1015.6
20260505065020 15 259 0.0 0.0 0.00 0.00 0.00 89 1015.6
20260505064517 15 261 0.0 0.0 0.00 0.00 0.00 89 1015.6
20260505064015 15 241 0.0 0.0 0.00 0.00 0.00 89 1015.6
20260505063512 15 275 0.0 0.0 0.00 0.00 0.00 89 1015.6
20260505063008 15 248 0.0 0.0 0.00 0.00 0.00 89 1015.6
20260505062505 15 268 0.0 0.0 0.00 0.00 0.00 89 1015.6
20260505062002 15 213 0.0 0.0 0.00 0.00 0.00 89 1015.6
20260505061500 15 243 0.0 0.0 0.00 0.00 0.00 89 1015.6
20260505060957 15 245 0.0 0.0 0.00 0.00 0.00 89 1015.6
20260505060454 15 224 0.0 0.0 0.00 0.00 0.00 90 1015.6
20260505055950 15 221 0.0 0.0 0.00 0.00 0.00 90 1015.6
20260505055446 15 240 0.0 0.0 0.00 0.00 0.00 90 1015.6
20260505054943 15 266 0.0 0.0 0.00 0.00 0.00 90 1015.6
20260505054441 15 191 0.0 0.0 0.00 0.00 0.00 90 1015.9
20260505053939 15 250 0.0 0.0 0.00 0.00 0.00 90 1015.6
20260505053436 15 244 0.0 0.0 0.00 0.00 0.00 90 1015.6
20260505052932 15 241 0.0 0.0 0.00 0.00 0.00 89 1015.6
20260505052429 15 168 0.0 0.0 0.00 0.00 0.00 89 1015.9
20260505051926 15 244 0.0 0.0 0.00 0.00 0.00 89 1015.6
20260505051423 15 244 0.0 0.0 0.00 0.00 0.00 89 1015.6
20260505050922 15 253 0.0 0.0 0.00 0.00 0.00 89 1015.6
20260505050420 15 230 0.0 0.0 0.00 0.00 0.00 89 1015.9
20260505041347 15 196 0.0 0.0 0.00 0.00 0.00 87 1015.9
20260505040844 15 209 0.0 0.0 0.00 0.00 0.00 87 1015.9
20260505040342 15 184 0.0 0.0 0.00 0.00 0.00 86 1015.9
20260505035838 15 172 0.0 0.0 0.00 0.00 0.00 87 1015.9
20260505035334 15 228 0.0 0.0 0.00 0.00 0.00 86 1015.9
20260505034832 15 172 0.0 0.0 0.00 0.00 0.00 86 1015.9
20260505034328 15 206 0.0 0.0 0.00 0.00 0.00 86 1015.9
20260505033825 15 182 0.0 0.0 0.00 0.00 0.00 86 1015.9
20260505033322 15 189 0.0 0.0 0.00 0.00 0.00 86 1015.9
20260505032820 15 128 0.0 0.0 0.00 0.00 0.00 86 1015.6
20260505032316 15 144 0.0 0.0 0.00 0.00 0.00 85 1015.9
20260505031814 15 134 0.0 0.0 0.00 0.00 0.00 84 1015.6
20260505031310 15 179 0.0 0.0 0.00 0.00 0.00 85 1015.6
20260505030807 15 143 0.0 0.0 0.00 0.00 0.00 85 1015.6
20260505030303 15 150 0.0 0.0 0.00 0.00 0.00 84 1015.6
20260505025759 15 189 0.0 0.0 0.00 0.00 0.00 85 1015.6
20260505025257 15 171 0.0 0.0 0.00 0.00 0.00 85 1015.6
20260505024755 15 134 8.0 12.9 0.00 0.00 0.00 85 1015.6
20260505024252 15 133 9.7 11.3 0.00 0.00 0.00 85 1015.6
20260505023749 15 186 0.0 0.0 0.00 0.00 0.00 84 1015.6
20260505023246 15 181 0.0 0.0 0.00 0.00 0.00 84 1015.6
20260505022743 15 166 0.0 0.0 0.00 0.00 0.00 84 1015.6
20260505022240 15 144 11.3 12.9 0.00 0.00 0.00 84 1015.6
20260505021737 16 204 0.0 0.0 0.00 0.00 0.00 84 1015.6
20260505021234 16 237 0.0 0.0 0.00 0.00 0.00 84 1015.6
20260505020730 16 192 0.0 0.0 0.00 0.00 0.00 84 1015.9
20260505020225 16 228 6.4 9.7 0.00 0.00 0.00 85 1015.6
20260505015723 16 211 11.3 14.5 0.00 0.00 0.00 84 1015.6
20260505015220 16 168 8.0 11.3 0.00 0.00 0.00 84 1015.6
20260505014717 16 238 8.0 16.1 0.00 0.00 0.00 83 1015.6
20260505014214 16 233 6.4 9.7 0.00 0.00 0.00 80 1015.6
20260505013711 16 287 9.7 12.9 0.00 0.00 0.00 80 1015.6
20260505013208 16 265 11.3 14.5 0.00 0.00 0.00 84 1015.6
20260505012706 17 257 8.0 11.3 0.00 0.00 0.00 82 1015.6
20260505012203 17 225 3.2 4.8 0.00 0.00 0.00 81 1015.6
20260505011658 17 262 9.7 12.9 0.00 0.00 0.00 81 1015.9
20260505011156 17 262 6.4 9.7 0.00 0.00 0.00 80 1015.6
20260505010651 17 288 6.4 11.3 0.00 0.00 0.00 77 1015.6
20260505010148 17 203 0.0 0.0 0.00 0.00 0.00 78 1015.6
20260505005644 17 236 9.7 11.3 0.00 0.00 0.00 79 1015.6
20260505005141 17 150 1.6 4.8 0.00 0.00 0.00 75 1015.6
20260505004638 17 197 8.0 9.7 0.00 0.00 0.00 75 1015.6
20260505004135 16 177 1.6 3.2 0.00 0.00 0.00 77 1015.6
20260505003632 16 244 14.5 16.1 0.00 0.00 0.00 78 1015.6
20260505003129 17 217 12.9 16.1 0.00 0.00 0.00 78 1015.9
20260505002625 17 250 11.3 14.5 0.00 0.00 0.00 77 1015.6
20260505002124 17 224 14.5 17.7 0.00 0.00 0.00 78 1015.6
20260505001621 17 242 11.3 14.5 0.00 0.00 0.00 79 1015.9
20260505001118 17 263 8.0 12.9 0.00 0.00 0.00 80 1015.9
20260505000615 17 184 11.3 17.7 0.00 0.00 0.00 80 1015.9
20260505000113 17 248 16.1 22.5 0.00 0.00 0.00 79 1015.9
20260504235609 17 230 9.7 14.5 0.00 0.00 0.00 79 1015.9
20260504235106 17 192 11.3 14.5 0.00 0.00 0.00 78 1015.9
20260504234603 17 257 4.8 8.0 0.00 0.00 0.00 77 1015.9
20260504234100 17 192 6.4 9.7 0.00 0.00 0.00 77 1015.6
20260504233555 17 215 12.9 14.5 0.00 0.00 0.00 76 1015.9
20260504233052 18 174 9.7 14.5 0.00 0.00 0.00 74 1015.6
20260504232549 18 227 9.7 16.1 0.00 0.00 0.00 74 1015.6
20260504232047 18 240 11.3 20.9 0.00 0.00 0.00 71 1015.6
20260504231543 18 202 9.7 14.5 0.00 0.00 0.00 73 1015.6
20260504231039 18 250 19.3 25.7 0.00 0.00 0.00 73 1015.6
20260504230536 18 209 11.3 14.5 0.00 0.00 0.00 73 1015.6
20260504230035 18 182 12.9 17.7 0.00 0.00 0.00 73 1015.6
20260504225531 18 247 0.0 0.0 0.00 0.00 0.00 73 1015.6
20260504225029 18 257 14.5 20.9 0.00 0.00 0.00 75 1015.6
20260504224525 18 184 22.5 27.4 0.00 0.00 0.00 74 1015.9
20260504224022 18 244 17.7 24.1 0.00 0.00 0.00 73 1015.9
20260504223519 18 182 9.7 12.9 0.00 0.00 0.00 76 1015.9
20260504223015 18 158 17.7 22.5 0.00 0.00 0.00 75 1015.9
20260504222512 18 237 20.9 25.7 0.00 0.00 0.00 74 1016.2
20260504222009 19 147 14.5 20.9 0.00 0.00 0.00 74 1015.9
20260504221507 18 233 14.5 17.7 0.00 0.00 0.00 74 1016.2
20260504221003 19 197 14.5 20.9 0.00 0.00 0.00 72 1015.9
20260504220500 19 183 14.5 17.7 0.00 0.00 0.00 73 1016.2
20260504215956 19 167 6.4 11.3 0.00 0.00 0.00 71 1016.2
20260504215453 19 215 17.7 22.5 0.00 0.00 0.00 72 1016.2
20260504214950 19 220 14.5 17.7 0.00 0.00 0.00 71 1016.2
20260504214446 19 180 12.9 20.9 0.00 0.00 0.00 72 1016.2
20260504213943 20 252 19.3 25.7 0.00 0.00 0.00 71 1016.6
20260504213439 20 252 9.7 14.5 0.00 0.00 0.00 70 1016.6
20260504212937 20 243 6.4 11.3 0.00 0.00 0.00 71 1016.6
20260504212432 20 212 14.5 16.1 0.00 0.00 0.00 71 1016.6
20260504211930 19 202 12.9 17.7 0.00 0.00 0.00 72 1016.6
20260504211426 19 225 11.3 12.9 0.00 0.00 0.00 72 1016.6
20260504210924 20 170 12.9 16.1 0.00 0.00 0.00 72 1016.6
20260504210421 19 150 16.1 17.7 0.00 0.00 0.00 73 1016.9
20260504205918 18 226 8.0 11.3 0.00 0.00 0.00 73 1016.6
20260504205415 19 161 9.7 12.9 0.00 0.00 0.00 72 1016.6
20260504204913 19 252 12.9 16.1 0.00 0.00 0.00 71 1016.6
20260504204412 20 252 11.3 14.5 0.00 0.00 0.00 74 1016.6
20260504203911 20 235 14.5 16.1 0.00 0.00 0.00 72 1016.6
20260504203408 20 268 3.2 9.7 0.00 0.00 0.00 73 1016.9
20260504202903 20 246 14.5 17.7 0.00 0.00 0.00 73 1016.6
20260504202400 19 264 17.7 20.9 0.00 0.00 0.00 72 1016.6
20260504201856 19 242 14.5 16.1 0.00 0.00 0.00 72 1016.6
20260504201354 19 239 19.3 25.7 0.00 0.00 0.00 73 1016.6
20260504200851 18 242 9.7 12.9 0.00 0.00 0.00 74 1016.6
20260504200348 18 214 9.7 16.1 0.00 0.00 0.00 74 1016.6
20260504195845 19 253 11.3 16.1 0.00 0.00 0.00 72 1016.6
20260504195340 19 250 12.9 22.5 0.00 0.00 0.00 70 1016.6
20260504194837 20 258 11.3 14.5 0.00 0.00 0.00 67 1016.6
20260504194333 19 246 14.5 16.1 0.00 0.00 0.00 67 1016.6
20260504193829 20 241 12.9 14.5 0.00 0.00 0.00 64 1016.9
20260504193327 19 228 14.5 17.7 0.00 0.00 0.00 63 1016.9
20260504192825 20 248 16.1 20.9 0.00 0.00 0.00 67 1016.9
20260504192323 19 231 11.3 14.5 0.00 0.00 0.00 65 1016.9
20260504191821 20 167 12.9 16.1 0.00 0.00 0.00 64 1016.9
20260504191318 20 255 11.3 14.5 0.00 0.00 0.00 62 1016.9
20260504190814 19 191 8.0 9.7 0.00 0.00 0.00 63 1016.9
20260504190310 18 189 3.2 12.9 0.00 0.00 0.00 65 1016.6
20260504185807 18 164 8.0 12.9 0.00 0.00 0.00 69 1016.6
20260504185304 19 176 3.2 9.7 0.00 0.00 0.00 67 1016.9
20260504184800 19 251 12.9 22.5 0.00 0.00 0.00 68 1016.9
20260504184256 18 235 14.5 17.7 0.00 0.00 0.00 69 1017.3
20260504183752 18 202 6.4 9.7 0.00 0.00 0.00 70 1016.9
20260504183249 18 241 12.9 14.5 0.00 0.00 0.00 72 1016.9
20260504182747 18 220 11.3 16.1 0.00 0.00 0.00 70 1016.9
20260504182244 18 192 16.1 22.5 0.00 0.00 0.00 71 1016.9
20260504181741 18 218 11.3 14.5 0.00 0.00 0.00 71 1016.9
20260504181238 18 186 9.7 14.5 0.00 0.00 0.00 70 1016.9
20260504180738 17 231 6.4 16.1 0.00 0.00 0.00 73 1017.3
20260504180236 18 159 3.2 12.9 0.00 0.00 0.00 70 1016.9
20260504175733 18 181 0.0 0.0 0.00 0.00 0.00 73 1017.3
20260504175229 18 243 9.7 12.9 0.00 0.00 0.00 69 1016.9
20260504174728 17 197 9.7 14.5 0.00 0.00 0.00 71 1016.9
20260504174225 18 170 11.3 14.5 0.00 0.00 0.00 71 1016.9
20260504173721 18 205 8.0 11.3 0.00 0.00 0.00 72 1016.9
20260504173219 18 239 0.0 3.2 0.00 0.00 0.00 73 1016.9
20260504172715 18 237 8.0 16.1 0.00 0.00 0.00 70 1016.9
20260504172211 18 258 8.0 11.3 0.00 0.00 0.00 70 1016.9
20260504171708 18 224 0.0 0.0 0.00 0.00 0.00 70 1016.9
20260504171205 18 216 0.0 0.0 0.00 0.00 0.00 70 1016.6
20260504170702 18 241 0.0 0.0 0.00 0.00 0.00 70 1016.6
20260504170200 18 214 3.2 11.3 0.00 0.00 0.00 69 1016.6
20260504160118 16 203 4.8 8.0 0.00 0.00 0.00 77 1016.2
20260504151045 15 204 0.0 0.0 0.00 0.00 0.00 78 1016.2
20260504150542 15 211 0.0 0.0 0.00 0.00 0.00 78 1016.2
20260504141008 14 269 6.4 8.0 0.00 0.00 0.00 85 1015.9
20260504140505 15 257 12.9 14.5 0.00 0.00 0.00 85 1015.6
20260504130429 14 259 0.0 0.0 0.00 0.00 0.00 83 1015.6
20260504110317 15 276 0.0 0.0 0.00 0.00 0.00 82 1015.6
20260504100234 15 239 0.0 0.0 0.00 0.00 0.00 83 1015.6